ATLAS 5 CENTAUR DEB *, 43950

Orbit data source: Space-Track

ATLAS 5 CENTAUR DEB *, 43950 is space debris in HEO originally from a launch on Wed, 17 Sep 2014 UTC launched from the Air Force Eastern Test Range (AFETR). Debris objects in space refer to the collection of defunct objects orbiting the Earth. Examples of debris include non-operational satellites, rocket bodies, and fragments generated from explosions, collisions, or faulty payload assembly.

Loading next visibility...
Identifier
43950, 2014-055D
Orbit
HEO
Country
Flag of USUS
Related business
Flag of USUnited Launch Alliance/Lockheed Martin (US)
Manufacturer
Unknown
Mission
Spacecraft
Bus & Motor
Unknown
Mass
Unknown
Launch date (UTC)
2014-09-17 (12 years ago)
Launch vehicle
Unknown
Launch site
Air Force Eastern Test Range (AFETR)
Object type
Payload
Rocket body
Debris
Shape & HBR
Unknown shape, 1.1 m
Radar Cross Section
Medium (>0.1 m² and <1 m²)

Expand to show TLE details & history
Last TLE update: 6 days ago

TLE from 6 days ago
0 ATLAS 5 CENTAUR DEB *
1 43950U 14055D   26167.23071554 -.00000253  00000-0  00000-0 0  9996
2 43950  22.0518  97.8160 5176725 259.3815  40.8341  1.95816892 55669
Epoch: 2026-06-16T05:32Z
TLE epoch observation values (Epoch: 2026-06-16T05:32:13.822Z)
Latitude
0.00005°
Longitude
110.16668°
Altitude
15,482.12 km
Speed
4.658 km/s
True Right ascension
06h 30m 55s
True Declination
0° 00' 00"
Sunlit
Object was in daylight at epoch
Visualization orbit readout
Latitude
Unknown
Longitude
Unknown
Altitude
Unknown
Speed
Unknown
Apparent Right ascension
Unknown
Apparent Declination
Unknown
Sunlit
N/A
Visualization observer readout
Local Sidereal Time
21:38:36
Azimuth
Unknown
Elevation
Unknown
Doppler factor
Unknown
Orbital elements
Apogee altitude
34,583.736 km
Perigee altitude
6,639.848 km
Semi-major axis
26,989.929 km
Eccentricity
0.51767
Inclination
22.0518°
RAAN
97.816°
Arg. of periapsis
259.3815°
True anomaly
100.66221°
Mean anomaly
40.8341°
Eccentric anomaly
68.41444°
Mean motion
0.48949 °/min
Orbital period
735.46 mins
BSTAR
0
Loading maneuver chart data...
Computing Atmospheric mass density...

Documentation

Showing up to 5 results
|